{"data":{"norad_id":38257,"intl_designator":"2012-021A","name":"YAOGAN-14","alt_names":[],"object_type":"PAYLOAD","status":"ACTIVE","operator":null,"country":"PRC","launch_date":"2012-05-10","launch_site_code":"TAISC","launch_vehicle":null,"mission":null,"orbit_class":"UNKNOWN","rcs_meters":5.41,"size_class":null,"mass_kg":null,"dimensions":null,"purposes":[],"wikipedia_slug":null,"has_3d_model":false,"image_url":null,"decayed_at":null,"tle_current":{"epoch":"2026-09-20T05:19:40.156320Z","epoch_age_seconds":54308,"freshness":"FRESH","line1":"1 38257U 12021A   26263.22199255  .00004581  00000+0  16586-3 0  9991","line2":"2 38257  97.3162  38.7269 0004403 187.4799 172.6376 15.28888131800337","mean_motion":15.28888131,"eccentricity":0.0004403,"inclination_deg":97.3162,"raan_deg":38.7269,"arg_perigee_deg":187.4799,"mean_anomaly_deg":172.6376,"bstar":0.00016586,"rev_number":80033,"period_min":94.186093200824,"perigee_km":476.11561754942,"apogee_km":482.15413116198,"semimajor_km":6857.2718743557,"source":"CELESTRAK","updated_at":"2026-09-20T09:00:13.855834Z"}}}